AUA373Z LOWW-LFMN

Flight info

Callsign AUA373Z
Flight time N/A
Altitude 33000
Route SNU VIW VIL SES AZR
Aircraft B738/M-VGDW/C

Departure

Time 2026-04-22 20:58
Airport Vienna International Airport (LOWW)

Arrival

Time N/A
Airport Nice-Côte d'Azur Airport (LFMN)
Time Latitude Longitude Altitude Speed Heading
2026-04-22 20:38 48.12011 16.55593 610 ft 0 kts 114°
2026-04-22 20:49 48.12012 16.55591 610 ft 1 kts 114°
2026-04-22 20:49 48.12018 16.55571 610 ft 3 kts 114°
2026-04-22 20:50 48.12025 16.55545 610 ft 3 kts 114°
2026-04-22 20:50 48.12033 16.55517 610 ft 3 kts 114°
2026-04-22 20:50 48.12042 16.55489 610 ft 3 kts 114°
2026-04-22 20:50 48.12047 16.55473 610 ft 0 kts 114°
2026-04-22 20:51 48.12038 16.55486 610 ft 6 kts 148°
2026-04-22 20:51 48.12005 16.55468 610 ft 9 kts 220°
2026-04-22 20:51 48.11922 16.55397 610 ft 14 kts 202°
2026-04-22 20:51 48.11892 16.55318 610 ft 6 kts 255°
2026-04-22 20:52 48.11876 16.55285 610 ft 2 kts 226°
2026-04-22 20:52 48.11873 16.55281 610 ft 3 kts 215°
2026-04-22 20:52 48.11812 16.55322 610 ft 18 kts 129°
2026-04-22 20:52 48.11741 16.55547 610 ft 23 kts 115°
2026-04-22 20:53 48.11677 16.55758 610 ft 21 kts 116°
2026-04-22 20:53 48.11615 16.55945 610 ft 19 kts 116°
2026-04-22 20:53 48.11559 16.56117 610 ft 18 kts 116°
2026-04-22 20:53 48.11507 16.56275 610 ft 16 kts 116°
2026-04-22 20:54 48.11461 16.56418 610 ft 15 kts 116°
2026-04-22 20:54 48.11419 16.56545 610 ft 13 kts 116°
2026-04-22 20:54 48.11382 16.56660 610 ft 12 kts 116°
2026-04-22 20:54 48.11349 16.56760 610 ft 10 kts 116°
2026-04-22 20:55 48.11320 16.56847 610 ft 9 kts 116°
2026-04-22 20:55 48.11288 16.56946 610 ft 12 kts 116°
2026-04-22 20:55 48.11245 16.57077 610 ft 16 kts 116°
2026-04-22 20:55 48.11192 16.57240 610 ft 19 kts 116°
2026-04-22 20:56 48.11132 16.57423 610 ft 20 kts 116°
2026-04-22 20:56 48.11068 16.57601 610 ft 17 kts 141°
2026-04-22 20:56 48.10973 16.57581 610 ft 13 kts 205°
2026-04-22 20:56 48.10968 16.57577 610 ft 0 kts 205°
2026-04-22 20:57 48.10929 16.57547 610 ft 12 kts 224°
2026-04-22 20:57 48.10940 16.57455 610 ft 13 kts 297°
2026-04-22 20:57 48.11059 16.57093 610 ft 72 kts 296°
2026-04-22 20:58 48.11391 16.56072 610 ft 148 kts 296°
2026-04-22 20:58 48.11938 16.54395 967 ft 199 kts 296°
2026-04-22 20:58 48.12565 16.52478 2127 ft 218 kts 295°
2026-04-22 20:58 48.13192 16.50476 2761 ft 194 kts 295°
2026-04-22 20:59 48.13729 16.48847 3013 ft 159 kts 296°
2026-04-22 20:59 48.14251 16.47424 2706 ft 160 kts 298°
2026-04-22 20:59 48.14847 16.45955 2781 ft 164 kts 301°
2026-04-22 20:59 48.15509 16.44398 3342 ft 193 kts 300°
2026-04-22 21:00 48.16092 16.42424 3783 ft 222 kts 280°
2026-04-22 21:00 48.15861 16.40059 4277 ft 249 kts 250°
2026-04-22 21:00 48.14729 16.37920 4773 ft 281 kts 222°
2026-04-22 21:00 48.12906 16.36663 5248 ft 296 kts 196°
2026-04-22 21:01 48.10836 16.36367 5739 ft 303 kts 184°
2026-04-22 21:01 48.08684 16.36484 6208 ft 315 kts 179°
2026-04-22 21:01 48.06480 16.36743 6664 ft 318 kts 179°
2026-04-22 21:01 48.04295 16.36999 7110 ft 319 kts 179°
2026-04-22 21:02 48.02050 16.37179 7566 ft 321 kts 181°
2026-04-22 21:02 47.99845 16.37175 8010 ft 321 kts 186°
2026-04-22 21:02 47.97628 16.36809 8460 ft 321 kts 193°
2026-04-22 21:02 47.95461 16.36011 8913 ft 321 kts 200°
2026-04-22 21:03 47.93379 16.34804 9367 ft 321 kts 207°
2026-04-22 21:03 47.91403 16.33255 9820 ft 321 kts 213°
2026-04-22 21:03 47.89591 16.31330 10270 ft 320 kts 222°
2026-04-22 21:03 47.87989 16.29020 10728 ft 321 kts 229°
2026-04-22 21:04 47.86523 16.26507 11181 ft 322 kts 232°
2026-04-22 21:04 47.85137 16.23886 11633 ft 323 kts 234°
2026-04-22 21:04 47.84244 16.22111 11932 ft 324 kts 236°
2026-04-22 21:04 47.82483 16.18499 12531 ft 326 kts 236°
2026-04-22 21:05 47.81163 16.15741 12982 ft 328 kts 237°
2026-04-22 21:05 47.80271 16.13864 13287 ft 329 kts 237°
2026-04-22 21:05 47.78946 16.11072 13738 ft 331 kts 237°
2026-04-22 21:05 47.77176 16.07345 14336 ft 334 kts 237°
2026-04-22 21:06 47.76286 16.05473 14635 ft 336 kts 237°
2026-04-22 21:06 47.74933 16.02631 15087 ft 338 kts 237°
2026-04-22 21:06 47.73565 15.99767 15539 ft 340 kts 237°
2026-04-22 21:06 47.72192 15.96896 15991 ft 342 kts 237°
2026-04-22 21:07 47.70804 15.94000 16443 ft 344 kts 237°
2026-04-22 21:07 47.69405 15.91089 16895 ft 347 kts 237°
2026-04-22 21:07 47.68002 15.88173 17346 ft 349 kts 237°
2026-04-22 21:07 47.66581 15.85224 17799 ft 351 kts 237°
2026-04-22 21:08 47.65174 15.82308 18244 ft 353 kts 236°
2026-04-22 21:08 47.63737 15.79334 18696 ft 356 kts 236°
2026-04-22 21:08 47.62289 15.76342 19148 ft 358 kts 236°
2026-04-22 21:08 47.60829 15.73329 19600 ft 360 kts 236°
2026-04-22 21:09 47.59359 15.70299 20052 ft 363 kts 236°
2026-04-22 21:09 47.57876 15.67246 20505 ft 365 kts 236°
2026-04-22 21:09 47.56385 15.64179 20957 ft 368 kts 236°
2026-04-22 21:09 47.54885 15.61097 21408 ft 370 kts 236°
2026-04-22 21:10 47.53394 15.58037 21854 ft 372 kts 236°
2026-04-22 21:10 47.51873 15.54921 22306 ft 374 kts 236°
2026-04-22 21:10 47.50340 15.51783 22758 ft 377 kts 236°
2026-04-22 21:10 47.48800 15.48635 23209 ft 379 kts 236°
2026-04-22 21:11 47.47250 15.45469 23661 ft 381 kts 236°
2026-04-22 21:11 47.45682 15.42271 24114 ft 384 kts 236°
2026-04-22 21:11 47.44112 15.39071 24565 ft 386 kts 236°
2026-04-22 21:11 47.42531 15.35854 25016 ft 388 kts 236°
2026-04-22 21:12 47.40942 15.32624 25467 ft 389 kts 236°
2026-04-22 21:12 47.39352 15.29398 25917 ft 389 kts 236°
2026-04-22 21:12 47.37755 15.26161 26367 ft 390 kts 236°
2026-04-22 21:12 47.36176 15.22964 26812 ft 390 kts 236°
2026-04-22 21:13 47.34558 15.19691 27268 ft 390 kts 236°
2026-04-22 21:13 47.32962 15.16469 27717 ft 389 kts 236°
2026-04-22 21:13 47.31386 15.13289 28161 ft 388 kts 236°
2026-04-22 21:13 47.29792 15.10079 28610 ft 387 kts 236°
2026-04-22 21:14 47.28198 15.06870 29060 ft 386 kts 236°
2026-04-22 21:14 47.26612 15.03682 29509 ft 385 kts 236°
2026-04-22 21:14 47.25033 15.00510 29958 ft 383 kts 236°
2026-04-22 21:14 47.23703 14.97842 30336 ft 382 kts 236°
2026-04-22 21:15 47.22135 14.94700 30784 ft 380 kts 236°
2026-04-22 21:15 47.20572 14.91573 31233 ft 378 kts 236°
2026-04-22 21:15 47.19035 14.88499 31676 ft 376 kts 236°
2026-04-22 21:15 47.17492 14.85418 32124 ft 373 kts 236°
2026-04-22 21:16 47.15953 14.82347 32572 ft 370 kts 236°
2026-04-22 21:16 47.14423 14.79298 32846 ft 373 kts 236°
2026-04-22 21:16 47.12869 14.76199 32950 ft 380 kts 236°
2026-04-22 21:16 47.11280 14.73034 32995 ft 388 kts 236°
2026-04-22 21:17 47.08031 14.66569 33004 ft 404 kts 236°
2026-04-22 21:17 47.04626 14.59813 33003 ft 418 kts 235°
2026-04-22 21:18 47.01115 14.52871 33002 ft 430 kts 235°
2026-04-22 21:18 46.97509 14.45763 33002 ft 439 kts 235°
2026-04-22 21:19 46.93840 14.38551 33001 ft 447 kts 235°
2026-04-22 21:19 46.90096 14.31213 33001 ft 453 kts 235°
2026-04-22 21:20 46.86305 14.23805 33001 ft 456 kts 235°
2026-04-22 21:20 46.82493 14.16375 33000 ft 458 kts 235°
2026-04-22 21:21 46.78661 14.08927 33000 ft 458 kts 235°
2026-04-22 21:21 46.74824 14.01488 33000 ft 458 kts 234°
2026-04-22 21:22 46.71045 13.94083 33000 ft 457 kts 236°
2026-04-22 21:22 46.67548 13.86346 33000 ft 456 kts 239°
2026-04-22 21:23 46.64235 13.78456 33000 ft 456 kts 240°
2026-04-22 21:23 46.60995 13.70529 33000 ft 456 kts 241°
2026-04-22 21:24 46.57786 13.62632 33000 ft 456 kts 241°
2026-04-22 21:24 46.54561 13.54706 33000 ft 455 kts 241°
2026-04-22 21:25 46.51335 13.46814 33000 ft 452 kts 241°
2026-04-22 21:25 46.48121 13.38984 33000 ft 450 kts 240°
2026-04-22 21:26 46.44931 13.31248 33000 ft 449 kts 240°
2026-04-22 21:26 46.41717 13.23483 33000 ft 449 kts 240°
2026-04-22 21:27 46.38493 13.15723 33000 ft 449 kts 240°
2026-04-22 21:27 46.35266 13.07982 33000 ft 449 kts 240°
2026-04-22 21:28 46.32030 13.00245 33000 ft 449 kts 240°
2026-04-22 21:28 46.28792 12.92525 33000 ft 449 kts 240°
2026-04-22 21:29 46.25543 12.84804 33000 ft 449 kts 240°
2026-04-22 21:29 46.22313 12.77148 33000 ft 449 kts 240°
2026-04-22 21:30 46.19056 12.69452 33000 ft 449 kts 240°
2026-04-22 21:30 46.15785 12.61745 33000 ft 449 kts 240°
2026-04-22 21:31 46.12518 12.54068 33000 ft 449 kts 240°
2026-04-22 21:31 46.09248 12.46403 33000 ft 449 kts 240°
2026-04-22 21:32 46.05984 12.38777 33000 ft 449 kts 240°
2026-04-22 21:32 46.02698 12.31119 33000 ft 449 kts 240°
2026-04-22 21:33 45.99410 12.23475 33000 ft 449 kts 240°
2026-04-22 21:33 45.96114 12.15838 33000 ft 449 kts 240°
2026-04-22 21:34 45.92816 12.08213 33000 ft 449 kts 239°
2026-04-22 21:34 45.89529 12.00637 33000 ft 449 kts 239°
2026-04-22 21:35 45.86212 11.93012 33000 ft 449 kts 239°
2026-04-22 21:35 45.82896 11.85408 33000 ft 449 kts 239°
2026-04-22 21:36 45.79600 11.77871 33000 ft 449 kts 239°
2026-04-22 21:36 45.76269 11.70276 33000 ft 449 kts 239°
2026-04-22 21:37 45.72933 11.62690 33000 ft 449 kts 239°
2026-04-22 21:37 45.69620 11.55176 33000 ft 449 kts 239°
2026-04-22 21:38 45.66274 11.47606 33000 ft 449 kts 239°
2026-04-22 21:38 45.62927 11.40055 33000 ft 449 kts 239°
2026-04-22 21:39 45.59594 11.32556 33000 ft 449 kts 239°
2026-04-22 21:39 45.56241 11.25033 33000 ft 449 kts 239°
2026-04-22 21:40 45.52880 11.17510 33000 ft 449 kts 239°
2026-04-22 21:40 45.49512 11.09993 33000 ft 449 kts 239°
2026-04-22 21:41 45.46140 11.02488 33000 ft 449 kts 239°
2026-04-22 21:41 45.42764 10.94992 33000 ft 449 kts 239°
2026-04-22 21:42 45.39386 10.87565 33000 ft 449 kts 238°
2026-04-22 21:42 45.35969 10.80112 33000 ft 449 kts 238°
2026-04-22 21:43 45.32534 10.72655 33000 ft 449 kts 238°